Weather History for Oakdale, LA

Change the Weather History Date:

Sunday, August 18, 2013

  Actual Average (KPOE) Record (KPOE)
Temperature  
Mean Temperature 78 °F -  
Max Temperature 89 °F 89 °F 105 °F (2011)
Min Temperature 66 °F 71 °F 62 °F (2004)
Cooling Degree Days 13    
Growing Degree Days 28 (Base 50)    
Moisture  
Dew Point 67 °F    
Average Humidity 74    
Maximum Humidity 96    
Minimum Humidity 42    
Precipitation  
Precipitation 0.00 in - - ()
Sea Level Pressure  
Sea Level Pressure 30.00 in    
Wind  
Wind Speed 2 mph (NNE)    
Max Wind Speed 12 mph    
Max Gust Speed 17 mph    
Visibility 8 miles    
Events      
Averages and records for this station are not official NWS values.
T = Trace of Precipitation, MM = Missing Value Source: NWS Daily Summary

Daily Weather History Graph

Daily Weather History Graph

Search for Another Location

Airport:

Trip Planner

Search our weather history database for the weather conditions in past years. The results will help you decide how hot, cold, wet, or windy it might be!

Date:

Astronomy

Aug. 18, 2013 Rise Set
Actual Time 6:39 AM CDT 7:49 PM CDT
Civil Twilight 6:13 AM CDT 8:14 PM CDT
Nautical Twilight 5:43 AM CDT 8:44 PM CDT
Astronomical Twilight 5:12 AM CDT 9:15 PM CDT
Moon 5:52 PM CDT (8/18) 3:54 AM CDT (8/18)
Length of Visible Light 14h 00m
Length of Day
13h 10m
Waxing Gibbous, 92% of the Moon is Illuminated
Aug 18
Waxing Gibbous
Aug 20
Full
Aug 28
Last Quarter
Sep 5
New
Sep 12
First Quarter

Hourly Weather History & Observations

Time (CDT) Temp. Heat Index Dew Point Humidity Pressure Visibility Wind Dir Wind Speed Gust Speed Precip Events Conditions
12:15 AM 71.1 °F - 69.1 °F 93% 29.98 in 7.0 mi Calm Calm - N/A   Scattered Clouds
12:35 AM 70.3 °F - 68.5 °F 94% 29.98 in 7.0 mi Calm Calm - N/A   Clear
12:55 AM 71.1 °F - 68.9 °F 93% 29.98 in 7.0 mi Calm Calm - N/A   Clear
1:15 AM 71.2 °F - 69.3 °F 93% 29.98 in 5.0 mi Calm Calm - N/A   Clear
1:35 AM 71.1 °F - 69.3 °F 94% 29.97 in 5.0 mi Calm Calm - N/A   Clear
1:55 AM 71.1 °F - 69.3 °F 94% 29.98 in 5.0 mi Calm Calm - N/A   Clear
2:15 AM 70.9 °F - 69.3 °F 95% 29.97 in 4.0 mi Calm Calm - N/A   Clear
2:35 AM 71.1 °F - 69.3 °F 94% 29.97 in 5.0 mi Calm Calm - N/A   Clear
2:55 AM 71.1 °F - 69.3 °F 94% 29.97 in 5.0 mi Calm Calm - N/A   Clear
3:15 AM 70.7 °F - 68.9 °F 94% 29.97 in 5.0 mi Calm Calm - N/A   Clear
3:35 AM 70.3 °F - 68.9 °F 95% 29.97 in 4.0 mi Calm Calm - N/A   Clear
3:55 AM 69.8 °F - 68.2 °F 95% 29.98 in 4.0 mi Calm Calm - N/A   Clear
4:15 AM 68.9 °F - 67.6 °F 96% 29.98 in 1.8 mi Calm Calm - N/A   Mist
4:35 AM 68.5 °F - 67.3 °F 96% 29.98 in 2.0 mi Calm Calm - N/A   Clear
4:55 AM 69.1 °F - 68.0 °F 96% 29.98 in 3.0 mi Calm Calm - N/A   Clear
5:15 AM 69.4 °F - 68.0 °F 95% 29.98 in 4.0 mi Calm Calm - N/A   Clear
5:35 AM 69.3 °F - 68.0 °F 96% 29.98 in 4.0 mi North 3.5 mph - N/A   Clear
5:55 AM 69.3 °F - 67.8 °F 95% 29.98 in 5.0 mi Calm Calm - N/A   Clear
6:15 AM 69.3 °F - 67.5 °F 94% 29.99 in 5.0 mi Calm Calm - N/A   Clear
6:35 AM 68.9 °F - 67.3 °F 95% 29.99 in 3.0 mi Calm Calm - N/A   Clear
6:55 AM 69.1 °F - 67.5 °F 95% 30.00 in 3.0 mi Calm Calm - N/A   Clear
7:15 AM 69.1 °F - 67.5 °F 95% 30.01 in 4.0 mi Calm Calm - N/A   Clear
7:35 AM 70.0 °F - 68.0 °F 93% 30.01 in 5.0 mi Calm Calm - N/A   Clear
7:55 AM 70.9 °F - 68.4 °F 92% 30.01 in 5.0 mi NNE 4.6 mph - N/A   Clear
8:15 AM 71.8 °F - 68.7 °F 90% 30.01 in 10.0 mi NE 4.6 mph - N/A   Clear
8:35 AM 73.6 °F - 69.3 °F 86% 30.02 in 10.0 mi NE 6.9 mph - N/A   Clear
8:55 AM 75.0 °F - 68.9 °F 81% 30.02 in 10.0 mi NNE 5.8 mph - N/A   Clear
9:15 AM 76.5 °F - 68.4 °F 76% 30.02 in 10.0 mi NNE 5.8 mph - N/A   Clear
9:35 AM 77.9 °F - 68.0 °F 71% 30.03 in 10.0 mi NE 8.1 mph - N/A   Clear
9:55 AM 79.5 °F - 68.2 °F 68% 30.03 in 10.0 mi NNE 9.2 mph - N/A   Scattered Clouds
10:15 AM 80.4 °F 82.7 °F 66.9 °F 63% 30.03 in 10.0 mi NE 8.1 mph - N/A   Clear
10:35 AM 81.0 °F 83.2 °F 66.2 °F 61% 30.03 in 10.0 mi NNE 8.1 mph 16.1 mph N/A   Clear
10:55 AM 82.6 °F 84.9 °F 66.2 °F 58% 30.04 in 10.0 mi NE 11.5 mph - N/A   Clear
11:15 AM 82.8 °F 84.9 °F 66.0 °F 57% 30.04 in 10.0 mi NNE 10.4 mph 16.1 mph N/A   Clear
11:35 AM 83.5 °F 86.2 °F 67.1 °F 58% 30.03 in 10.0 mi NNE 9.2 mph - N/A   Clear
11:55 AM 83.8 °F 86.7 °F 67.5 °F 58% 30.03 in 10.0 mi North 8.1 mph - N/A   Clear
12:15 PM 84.2 °F 86.3 °F 65.7 °F 54% 30.03 in 10.0 mi NNE 9.2 mph 17.3 mph N/A   Clear
12:35 PM 85.5 °F 86.8 °F 64.6 °F 49% 30.03 in 10.0 mi NE 9.2 mph - N/A   Clear
12:55 PM 86.5 °F 87.6 °F 63.5 °F 46% 30.02 in 10.0 mi NE 10.4 mph 16.1 mph N/A   Clear
1:15 PM 87.3 °F 88.6 °F 64.0 °F 46% 30.02 in 10.0 mi NE 8.1 mph - N/A   Clear
1:35 PM 87.3 °F 88.6 °F 64.4 °F 46% 30.02 in 10.0 mi NE 6.9 mph 17.3 mph N/A   Clear
1:55 PM 87.6 °F 88.8 °F 63.7 °F 45% 30.01 in 10.0 mi NNE 9.2 mph - N/A   Clear
2:15 PM 88.0 °F 89.3 °F 64.0 °F 45% 30.01 in 10.0 mi NNE 6.9 mph - N/A   Clear
2:35 PM 88.0 °F 89.0 °F 63.7 °F 44% 30.00 in 10.0 mi North 6.9 mph - N/A   Clear
2:55 PM 88.3 °F 90.2 °F 64.9 °F 46% 30.00 in 10.0 mi North 6.9 mph - N/A   Scattered Clouds
3:15 PM 88.5 °F 89.8 °F 63.9 °F 44% 29.99 in 10.0 mi NNE 4.6 mph - N/A   Scattered Clouds
3:35 PM 89.4 °F 90.5 °F 63.7 °F 42% 29.99 in 10.0 mi ENE 3.5 mph - N/A   Clear
3:55 PM 89.1 °F 90.0 °F 63.5 °F 42% 29.98 in 10.0 mi NE 8.1 mph - N/A   Clear
4:15 PM 89.1 °F 90.0 °F 63.5 °F 42% 29.98 in 10.0 mi NE 6.9 mph - N/A   Clear
4:35 PM 88.7 °F 89.8 °F 63.5 °F 43% 29.98 in 10.0 mi NNE 4.6 mph - N/A   Clear
4:55 PM 88.9 °F 89.7 °F 63.3 °F 42% 29.98 in 10.0 mi NE 9.2 mph - N/A   Scattered Clouds
5:15 PM 89.6 °F 90.8 °F 63.9 °F 42% 29.98 in 10.0 mi North 5.8 mph - N/A   Clear
5:35 PM 88.5 °F 89.8 °F 63.9 °F 44% 29.98 in 10.0 mi NNE 5.8 mph - N/A   Clear
5:55 PM 88.3 °F 89.9 °F 64.4 °F 45% 29.98 in 10.0 mi NNW 5.8 mph - N/A   Scattered Clouds
6:15 PM 87.8 °F 88.8 °F 63.7 °F 44% 29.97 in 10.0 mi North 5.8 mph - N/A   Scattered Clouds
6:35 PM 86.4 °F 87.0 °F 62.6 °F 45% 29.98 in 10.0 mi NNE 6.9 mph - N/A   Scattered Clouds
6:55 PM 85.3 °F 86.6 °F 64.0 °F 49% 29.98 in 10.0 mi NE 4.6 mph - N/A   Clear
7:15 PM 83.3 °F 84.8 °F 64.6 °F 53% 29.98 in 10.0 mi NE 3.5 mph - N/A   Clear
7:35 PM 80.6 °F 82.5 °F 65.7 °F 60% 29.98 in 10.0 mi Calm Calm - N/A   Clear
7:55 PM 75.9 °F - 68.5 °F 78% 29.99 in 10.0 mi Calm Calm - N/A   Clear
8:15 PM 73.4 °F - 68.9 °F 86% 29.99 in 10.0 mi Calm Calm - N/A   Clear
8:35 PM 72.5 °F - 67.3 °F 84% 29.99 in 10.0 mi Calm Calm - N/A   Clear
8:55 PM 71.6 °F - 68.4 °F 89% 30.00 in 10.0 mi Calm Calm - N/A   Clear
9:15 PM 70.7 °F - 67.6 °F 90% 30.00 in 10.0 mi Calm Calm - N/A   Clear
9:35 PM 70.0 °F - 67.5 °F 92% 30.00 in 10.0 mi Calm Calm - N/A   Clear
9:55 PM 69.4 °F - 66.7 °F 91% 30.01 in 10.0 mi Calm Calm - N/A   Clear
10:15 PM 69.1 °F - 66.4 °F 91% 30.00 in 10.0 mi Calm Calm - N/A   Clear
10:35 PM 68.5 °F - 66.4 °F 93% 30.00 in 10.0 mi Calm Calm - N/A   Clear
10:55 PM 68.0 °F - 65.8 °F 93% 30.00 in 10.0 mi Calm Calm - N/A   Clear
11:15 PM 67.8 °F - 65.8 °F 93% 30.00 in 10.0 mi Calm Calm - N/A   Clear
11:35 PM 67.1 °F - 64.9 °F 93% 30.00 in 10.0 mi Calm Calm - N/A   Clear
11:55 PM 66.7 °F - 64.9 °F 94% 30.00 in 7.0 mi Calm Calm - N/A   Clear